Theta_e
339 340 337 336 336 336 334 333 332 331 333 332 335 336 336 337 337 336 334 334 333 333 334 333 330 329 327 326 325 324 324 323 322 323 324 326 327 328 329 330 330 331 331
338 337 335 335 333 331 332 331 333 332 332 334 334 334 333 332 331 329 329 332 332 332 331 328 326 324 323 322 321 320 319 318 318 318 319 321 322 323 324 325 326 326 326
330 327 323 323 329 329 331 331 331 330 331 333 331 331 329 327 326 328 328 330 328 325 324 323 321 320 319 318 316 315 315 314 314 314 314 314 315 316 317 317 316 319 319
328 323 321 326 327 328 328 328 328 328 330 331 327 324 323 324 323 321 323 323 322 320 319 318 317 317 317 316 315 314 313 312 312 312 311 312 312 311 312 311 311 311 312
324 323 320 322 324 325 326 326 327 327 327 327 322 321 319 319 319 319 319 318 318 318 316 315 314 313 313 313 313 312 311 310 310 309 309 309 309 308 308 308 308 308 308
319 318 315 322 323 323 324 324 325 325 325 325 318 315 315 314 315 316 314 316 313 314 312 311 310 309 310 310 311 310 311 309 308 308 308 307 306 306 305 306 305 305 305
316 314 315 318 320 322 323 323 324 324 324 321 317 310 311 311 311 310 310 311 313 313 313 312 309 306 307 308 308 308 309 307 307 307 305 304 304 303 303 303 303 303 303
314 313 316 317 317 315 319 320 322 322 322 322 322 320 315 309 306 306 305 305 307 307 306 306 307 306 306 305 305 305 305 306 306 304 303 302 302 302 302 302 302 302 303
314 312 312 311 312 313 316 317 318 318 320 320 322 322 320 320 307 303 302 301 302 304 304 304 304 304 305 301 300 302 302 303 304 302 301 301 300 300 300 300 301 301 302
312 312 314 314 314 314 313 314 315 316 317 318 319 320 321 317 317 309 300 300 301 301 302 301 302 302 303 301 300 298 299 300 300 300 300 299 299 299 299 299 300 300 300
313 314 314 314 314 314 313 313 313 313 313 315 316 318 318 318 318 315 311 300 298 300 301 300 300 300 300 300 297 294 296 297 296 296 297 297 297 297 298 298 299 298 299
316 315 315 316 315 314 313 313 312 312 312 312 312 313 314 315 316 316 315 306 303 300 298 298 298 298 298 298 295 292 293 294 294 294 294 295 295 296 296 297 297 298 299
318 317 317 316 315 314 313 312 312 311 311 311 311 310 310 312 313 314 314 307 306 302 299 298 298 298 298 296 293 292 291 291 292 292 292 292 293 293 294 294 295 296 298
318 318 317 316 315 314 313 312 312 311 311 311 311 310 310 310 310 310 312 312 308 304 301 300 297 298 297 296 292 291 290 290 289 290 290 290 290 291 292 292 293 294 294
318 318 317 316 315 314 313 312 311 311 310 309 309 309 308 308 308 309 309 310 309 310 305 302 298 297 296 294 291 291 289 288 287 288 288 288 289 289 290 290 290 290 290
319 316 317 316 315 314 313 312 311 310 309 309 307 306 306 305 304 304 305 307 308 309 309 304 300 297 295 294 292 291 289 287 286 286 286 286 287 287 288 288 288 287 287
318 316 316 315 314 314 313 312 311 310 308 308 306 305 304 302 302 302 302 303 305 306 308 300 299 296 295 293 291 290 288 287 286 285 285 284 285 285 286 286 286 285 285
315 314 314 314 313 313 312 311 310 308 307 307 305 303 302 300 299 300 299 300 302 304 304 300 296 295 294 292 291 288 289 288 286 285 284 284 284 284 284 285 285 284 283
313 312 312 312 312 311 310 310 309 308 305 304 302 301 301 300 300 300 298 298 298 301 301 298 296 294 293 291 290 289 289 287 286 284 283 283 283 284 284 284 283 283 283
310 310 310 310 310 309 309 308 307 306 303 301 299 298 299 299 299 299 298 297 297 296 297 299 296 293 292 290 289 289 288 286 285 285 284 283 283 283 283 282 282 282 282
309 309 309 309 308 308 307 306 305 302 301 298 297 297 296 295 295 295 294 296 295 295 295 295 296 292 291 290 289 289 288 286 285 285 285 283 283 283 283 282 281 280 281
306 306 306 306 306 305 302 302 302 300 299 297 295 294 293 292 290 290 290 292 294 295 294 293 292 293 291 290 289 288 288 287 286 285 285 285 285 285 284 281 280 280 279
303 303 302 302 302 300 299 297 298 297 296 294 293 293 292 289 288 288 288 289 289 290 292 292 292 291 290 289 288 287 288 288 286 285 285 285 285 284 281 279 279 279 280
297 296 296 296 297 295 294 293 293 293 292 292 292 291 290 288 287 287 287 287 285 285 286 287 287 290 290 288 287 287 288 288 287 284 285 285 284 282 281 278 278 278 278
294 294 294 293 293 294 292 292 291 290 289 289 288 287 287 286 286 284 285 285 283 281 282 283 284 286 286 287 287 288 287 287 285 284 283 284 283 280 280 279 277 277 277
293 292 292 291 291 291 290 289 289 288 287 286 285 283 284 283 283 282 283 283 284 281 281 281 281 283 284 284 285 286 286 286 284 283 282 282 281 279 280 279 278 277 276
Wind_Speed
11 10 11 11 9 7 7 6 7 6 6 9 6 2 2 6 7 6 5 10 9 10 16 20 20 20 19 16 14 12 12 10 9 5 5 5 6 8 8 8 6 7 9
4 8 11 7 4 1 2 5 3 4 2 2 3 4 6 6 8 8 11 16 14 19 23 23 22 18 15 13 12 10 7 6 6 6 4 2 3 4 4 4 5 7 5
13 9 24 24 8 5 2 3 3 6 3 0 7 7 8 9 10 15 23 26 28 26 24 21 19 17 15 14 11 10 7 6 7 9 9 9 7 5 4 5 7 3 2
3 5 4 6 7 7 3 4 4 3 2 3 10 7 9 9 14 19 23 26 28 26 25 23 20 16 15 14 12 12 10 10 9 10 9 10 11 12 12 12 11 10 8
12 9 12 4 7 7 2 2 2 3 4 7 7 6 6 9 14 16 18 17 17 17 18 20 18 18 14 11 11 11 10 9 8 8 8 8 9 10 10 10 10 10 9
10 13 13 7 7 3 1 3 2 4 5 9 7 8 9 10 10 15 15 14 12 10 9 10 10 15 17 14 11 10 9 8 9 8 8 7 8 8 8 9 10 9 9
11 10 11 12 7 4 1 2 3 3 6 11 7 4 6 5 8 7 9 12 11 8 8 8 8 9 10 16 12 9 8 7 7 7 8 8 8 7 8 9 9 10 10
8 11 11 10 9 7 4 5 6 5 11 12 8 7 2 1 1 3 4 7 7 7 7 7 7 7 7 7 9 12 9 7 8 7 6 6 7 7 7 8 8 10 10
8 11 11 10 10 11 12 10 9 7 10 15 14 10 3 5 4 3 4 3 4 6 6 6 7 7 6 5 7 8 11 7 6 6 5 6 6 6 7 8 9 10 10
10 8 6 4 5 4 5 6 6 7 11 16 13 17 18 4 3 3 3 5 5 6 6 6 6 7 7 8 9 8 11 10 7 5 6 6 7 6 7 8 9 10 10
8 6 5 5 5 4 3 3 4 5 10 12 13 10 14 13 12 1 3 5 6 8 8 8 7 6 7 7 7 6 12 10 7 5 6 5 6 7 8 8 9 10 10
8 8 7 5 2 1 1 2 4 6 8 9 10 12 11 9 10 8 2 7 10 11 10 9 10 9 8 7 8 10 13 11 9 7 6 6 7 8 8 9 9 11 12
10 10 9 7 4 4 4 4 5 6 6 7 8 11 12 15 14 11 10 8 5 9 10 12 12 11 11 10 8 10 12 13 10 8 8 7 6 8 9 9 10 10 12
7 7 8 6 4 4 5 5 5 5 4 5 6 8 11 12 14 16 14 10 4 7 10 8 15 15 14 13 12 13 11 12 10 9 9 8 7 9 9 12 10 11 12
7 11 11 10 8 8 8 7 6 7 5 5 5 6 7 8 10 12 14 13 12 6 9 16 11 18 15 15 16 12 10 11 10 9 9 10 9 8 9 10 11 12 12
11 11 10 9 9 9 9 8 8 8 7 6 6 6 6 6 7 8 10 13 12 13 4 10 19 19 19 16 15 13 14 11 9 10 9 9 9 8 10 9 10 11 12
7 8 10 11 11 11 10 10 10 9 9 7 6 6 6 6 7 7 8 9 12 12 7 6 18 20 20 20 21 17 13 12 10 10 9 8 7 9 8 7 9 11 12
10 10 11 11 12 12 13 13 12 10 10 9 8 6 6 6 7 6 7 8 9 9 4 13 18 20 20 20 21 18 14 11 12 11 11 9 7 9 8 8 8 10 11
9 9 10 12 12 13 13 14 13 12 10 9 8 6 6 7 7 7 6 7 7 8 7 15 13 19 18 20 22 17 14 14 13 12 9 9 9 10 9 7 7 6 10
9 11 11 12 12 12 13 13 13 12 10 8 7 5 5 6 7 7 7 6 5 6 8 11 19 20 19 19 22 19 17 16 14 10 9 10 8 10 10 7 8 7 6
9 11 12 12 10 11 13 12 11 10 9 7 6 4 5 8 8 6 3 5 6 6 8 11 15 21 20 22 21 20 17 16 14 14 11 9 9 10 9 7 9 6 6
8 9 11 10 9 9 10 13 9 9 8 8 6 6 6 5 6 9 10 7 5 5 10 9 12 15 19 18 18 18 18 18 11 14 14 12 9 9 10 9 9 7 6
6 7 8 5 6 4 8 8 12 5 6 6 6 6 5 3 2 1 2 3 6 10 8 9 12 15 15 21 22 20 19 19 13 13 14 12 10 9 6 6 7 8 7
5 6 4 5 5 4 3 5 6 4 4 5 6 4 5 5 5 2 1 1 1 2 4 5 3 8 12 21 23 22 19 19 8 19 15 9 9 10 8 6 8 6 7
2 2 2 3 4 2 3 3 3 4 6 5 4 4 3 2 7 6 2 3 4 1 5 10 8 5 9 11 14 17 18 16 14 13 10 8 11 9 5 5 3 7 6
3 2 2 2 2 4 4 5 6 5 4 3 2 1 4 3 5 2 2 4 6 2 3 3 5 7 9 10 9 11 12 15 15 7 9 7 14 10 5 7 7 4 4
Wind_Direction
235 236 237 227 220 207 239 252 253 294 277 278 289 313 29 54 82 101 126 136 158 164 152 141 129 129 120 115 112 108 111 113 96 124 157 174 188 207 218 218 209 208 217
311 315 307 288 350 359 315 273 293 255 222 355 48 80 85 97 97 105 117 137 132 121 114 113 116 112 116 125 115 102 105 100 98 103 130 167 189 190 208 204 207 216 214
64 56 17 2 339 314 306 249 231 249 234 42 87 112 109 103 104 119 119 126 124 118 113 110 105 103 102 98 99 105 101 87 83 81 84 92 98 98 101 103 91 130 109
123 26 139 337 323 313 268 234 231 231 89 131 91 77 101 114 125 122 127 130 127 124 123 113 104 100 99 99 98 98 93 89 86 89 89 83 85 82 81 77 72 73 76
182 190 134 172 254 250 266 252 191 191 179 110 94 113 114 127 137 132 131 127 130 130 128 126 126 119 106 108 104 103 103 98 90 84 87 85 82 77 76 73 69 64 56
159 137 138 174 217 206 146 271 249 236 193 137 107 118 122 125 136 144 136 136 125 114 118 118 115 130 128 116 110 109 107 107 101 100 99 87 74 65 61 60 58 55 47
170 152 160 184 178 147 123 237 242 241 219 136 102 76 87 131 153 147 151 128 127 133 138 135 126 125 131 129 109 115 118 116 114 110 104 90 76 64 55 49 46 42 39
177 173 172 169 176 157 176 231 242 241 255 185 220 170 167 185 145 175 165 147 144 139 142 140 146 145 142 132 147 118 109 115 123 112 100 91 84 77 66 54 44 43 42
191 188 179 179 188 185 176 200 219 223 253 245 220 239 166 222 142 197 191 179 159 151 150 145 144 148 147 135 128 170 145 118 119 109 99 91 77 68 62 57 54 49 46
192 187 214 230 214 205 183 201 203 219 230 252 229 240 267 129 182 189 220 200 192 184 170 170 163 154 149 164 162 164 154 141 116 104 94 84 75 60 52 57 59 57 51
189 198 204 199 199 193 192 206 226 239 239 245 255 238 241 262 261 116 185 193 206 208 191 186 179 175 162 151 141 166 161 148 118 99 78 72 67 62 57 57 57 55 57
194 194 192 197 192 218 250 241 228 241 246 252 261 267 260 244 237 233 222 169 189 197 200 196 192 179 170 172 169 156 158 161 137 112 90 77 70 64 60 58 55 63 65
191 192 193 191 195 196 200 203 215 232 243 255 258 261 256 260 260 253 255 157 164 178 196 209 201 193 180 169 164 147 151 158 145 124 109 83 72 74 68 60 54 64 71
198 177 206 206 204 204 214 214 227 236 241 252 261 264 269 264 256 259 235 212 176 181 200 204 201 195 187 179 169 153 148 154 142 128 111 95 82 71 73 72 67 58 62
203 201 206 207 208 210 212 217 239 241 239 249 256 263 265 272 276 268 265 267 212 224 205 206 185 196 186 179 169 162 150 149 145 127 116 106 89 82 78 75 74 68 57
211 209 216 223 228 225 221 222 228 237 234 242 249 251 258 260 265 261 273 275 253 261 264 196 188 181 179 177 167 167 150 136 137 126 119 99 94 98 80 75 75 68 65
227 230 231 234 236 238 233 228 231 234 231 240 242 252 254 259 257 251 252 259 263 264 267 124 173 167 175 168 161 168 146 149 145 133 123 106 96 93 97 84 76 66 68
222 230 232 237 240 238 241 238 230 230 232 231 229 237 243 258 260 252 252 252 249 247 201 147 146 164 174 170 162 156 164 169 150 137 122 110 106 98 110 96 80 68 66
234 237 244 242 241 244 241 241 238 229 228 227 217 225 235 248 256 262 260 255 240 230 220 162 162 163 168 161 161 162 174 149 144 146 136 141 116 99 103 106 88 77 70
245 249 249 247 245 250 244 237 235 228 217 215 211 205 228 248 262 248 250 246 243 232 219 203 152 158 164 166 165 169 159 157 154 158 153 136 137 111 100 92 86 69 80
250 251 248 251 249 247 251 237 229 217 209 201 195 188 197 217 218 213 249 253 233 234 217 219 181 157 173 176 183 179 171 166 170 168 171 164 153 152 132 107 91 80 75
270 272 265 259 251 250 243 225 205 209 196 203 190 178 226 250 242 234 237 240 224 248 214 213 198 182 185 183 185 177 174 172 167 187 184 174 179 168 125 102 101 91 83
276 250 234 217 210 200 242 211 204 187 192 198 191 193 176 172 176 359 265 270 265 245 225 212 210 210 192 188 188 184 194 181 185 182 186 170 180 155 138 120 128 86 92
256 254 238 217 201 197 206 178 172 176 168 165 160 146 134 141 198 184 297 263 270 232 210 219 267 221 211 196 197 196 197 199 174 164 184 157 161 136 133 117 140 132 95
240 265 194 156 170 200 165 157 193 171 172 169 163 161 107 199 253 247 271 167 169 35 255 221 200 176 165 173 209 207 195 169 146 155 170 137 155 135 152 145 166 179 152
179 162 180 130 177 167 160 154 146 143 141 129 109 16 227 214 273 193 185 192 156 114 92 106 177 201 202 192 197 187 205 170 158 152 189 135 153 143 180 190 191 162 147